GSAT0220 (PRN E13)

Last updated on Mon Jul 22 2024 00:03:08 GMT+0000 (Coordinated Universal Time)

1 43567U 18060D 24202.27646482 -.00000070 00000+0 00000+0 0 9995 2 43567 57.3079 0.5816 0001312 292.7716 67.2199 1.70475773 37295
UTC large
Height (km)
Speed (km/s)
/
Latitude / Longitude
Inclination (degrees)
Orbital Period (minutes)
Azimuth
Elevation
Range (km)
Doppler Factor

Next 0 passes for location: London (51.5072 / 0.1276)

Sorry there are no passes over London.